Location: Unspecified
(0.0000°N, 0.0000°E)
Time: 02:15:08
(UTC+00:00)

SR - Pass Details

Date: 22 December 2018
Orbit: 581 x 876 km, 66.7° (Epoch: 16 January)

Event Time Altitude Azimuth Distance (km) Brightness Sun altitude
Rises 10:40:10 0° 342° (NNW) 2,807 ? 59.8°
Reaches altitude 10° 10:42:25 10° 343° (NNW) 1,894 ? 60.1°
Maximum altitude 10:46:37 79° 70° (ENE) 592 ? 60.8°
Drops below altitude 10° 10:50:52 10° 157° (SSE) 1,909 ? 61.4°
Sets 10:53:07 0° 158° (SSE) 2,831 ? 61.7°
